QPF
0.00 0.00 0.00 0.00 0.00 0.00 0.00 0.00 0.00 0.00 0.00 0.00 0.00 0.00 0.00 0.00 0.00 0.00 0.00 0.00 0.00 0.00 0.00 0.00 0.01 0.02 0.03 0.04 0.04 0.05 0.04 0.03 0.02 0.01 0.01 0.00 0.00 0.01 0.01 0.00 0.00 0.00 0.00
0.00 0.00 0.00 0.00 0.00 0.00 0.00 0.00 0.00 0.00 0.00 0.00 0.00 0.00 0.00 0.00 0.00 0.00 0.00 0.00 0.00 0.00 0.00 0.00 0.01 0.02 0.03 0.04 0.04 0.04 0.03 0.02 0.02 0.02 0.02 0.01 0.01 0.01 0.01 0.00 0.00 0.00 0.00
0.00 0.00 0.00 0.00 0.00 0.00 0.00 0.00 0.00 0.00 0.00 0.00 0.00 0.00 0.00 0.00 0.00 0.00 0.00 0.00 0.00 0.00 0.00 0.01 0.01 0.02 0.02 0.03 0.03 0.02 0.02 0.01 0.01 0.02 0.02 0.02 0.01 0.01 0.01 0.01 0.01 0.01 0.01
0.00 0.00 0.00 0.00 0.00 0.00 0.00 0.00 0.00 0.00 0.00 0.00 0.00 0.00 0.00 0.00 0.00 0.00 0.00 0.00 0.00 0.00 0.00 0.00 0.00 0.01 0.01 0.01 0.01 0.02 0.02 0.01 0.01 0.01 0.01 0.02 0.02 0.02 0.02 0.02 0.01 0.01 0.01
0.01 0.01 0.01 0.01 0.00 0.00 0.00 0.00 0.00 0.01 0.00 0.00 0.00 0.00 0.00 0.00 0.00 0.00 0.00 0.00 0.00 0.00 0.00 0.00 0.00 0.00 0.01 0.01 0.01 0.01 0.02 0.01 0.01 0.01 0.01 0.01 0.02 0.03 0.03 0.04 0.03 0.02 0.02
0.02 0.02 0.01 0.01 0.01 0.01 0.01 0.01 0.01 0.00 0.00 0.00 0.00 0.00 0.00 0.00 0.00 0.00 0.00 0.00 0.00 0.00 0.00 0.00 0.00 0.00 0.00 0.01 0.01 0.02 0.02 0.01 0.01 0.00 0.01 0.02 0.02 0.02 0.03 0.05 0.05 0.05 0.04
0.06 0.04 0.03 0.02 0.02 0.02 0.03 0.02 0.01 0.00 0.00 0.00 0.00 0.00 0.00 0.00 0.00 0.00 0.00 0.00 0.00 0.00 0.00 0.00 0.00 0.00 0.00 0.00 0.00 0.01 0.01 0.01 0.01 0.01 0.01 0.01 0.02 0.02 0.03 0.04 0.05 0.05 0.06
0.10 0.08 0.06 0.05 0.04 0.03 0.02 0.01 0.01 0.00 0.00 0.00 0.00 0.00 0.00 0.00 0.00 0.00 0.00 0.00 0.00 0.00 0.00 0.00 0.00 0.00 0.00 0.00 0.00 0.00 0.00 0.01 0.02 0.02 0.03 0.03 0.02 0.03 0.04 0.05 0.05 0.05 0.06
0.13 0.11 0.10 0.08 0.05 0.03 0.02 0.01 0.01 0.01 0.01 0.00 0.00 0.01 0.01 0.00 0.00 0.00 0.00 0.00 0.00 0.00 0.00 0.00 0.00 0.00 0.00 0.00 0.00 0.00 0.00 0.00 0.01 0.02 0.03 0.03 0.02 0.03 0.05 0.06 0.06 0.07 0.06
0.14 0.13 0.12 0.10 0.07 0.05 0.03 0.02 0.02 0.01 0.01 0.01 0.01 0.01 0.01 0.01 0.01 0.00 0.00 0.00 0.00 0.00 0.00 0.00 0.00 0.00 0.00 0.00 0.00 0.01 0.01 0.01 0.01 0.02 0.03 0.03 0.02 0.03 0.05 0.05 0.06 0.09 0.08
0.14 0.15 0.14 0.13 0.10 0.08 0.06 0.04 0.03 0.02 0.02 0.03 0.02 0.02 0.01 0.00 0.01 0.01 0.00 0.00 0.00 0.00 0.00 0.00 0.00 0.00 0.00 0.00 0.00 0.01 0.01 0.01 0.01 0.02 0.04 0.04 0.05 0.05 0.05 0.05 0.04 0.06 0.08
0.13 0.12 0.12 0.12 0.12 0.10 0.08 0.06 0.05 0.04 0.03 0.02 0.02 0.01 0.01 0.00 0.00 0.00 0.00 0.00 0.00 0.00 0.00 0.00 0.00 0.00 0.00 0.01 0.01 0.02 0.01 0.01 0.01 0.02 0.03 0.03 0.03 0.03 0.04 0.04 0.03 0.03 0.04
0.16 0.15 0.12 0.11 0.11 0.10 0.09 0.08 0.07 0.06 0.05 0.03 0.03 0.02 0.01 0.00 0.00 0.00 0.00 0.00 0.00 0.00 0.00 0.00 0.00 0.00 0.00 0.01 0.01 0.01 0.01 0.00 0.01 0.01 0.02 0.02 0.01 0.01 0.01 0.01 0.01 0.01 0.02
0.14 0.13 0.11 0.10 0.10 0.09 0.08 0.07 0.06 0.05 0.04 0.03 0.03 0.02 0.01 0.01 0.00 0.00 0.00 0.00 0.00 0.00 0.00 0.00 0.00 0.00 0.00 0.00 0.01 0.01 0.00 0.01 0.00 0.01 0.01 0.01 0.01 0.01 0.01 0.01 0.01 0.01 0.01
0.16 0.15 0.13 0.11 0.09 0.08 0.06 0.05 0.04 0.03 0.03 0.02 0.02 0.02 0.01 0.01 0.00 0.00 0.00 0.00 0.00 0.00 0.00 0.00 0.00 0.00 0.00 0.00 0.01 0.00 0.00 0.01 0.01 0.01 0.00 0.00 0.01 0.01 0.01 0.00 0.00 0.00 0.00
0.16 0.14 0.12 0.10 0.09 0.07 0.06 0.05 0.04 0.03 0.02 0.02 0.01 0.01 0.01 0.00 0.00 0.00 0.00 0.00 0.00 0.00 0.00 0.00 0.00 0.00 0.00 0.00 0.00 0.00 0.00 0.01 0.01 0.01 0.01 0.01 0.01 0.01 0.00 0.00 0.00 0.00 0.01
0.08 0.08 0.07 0.06 0.06 0.05 0.04 0.04 0.03 0.03 0.03 0.02 0.01 0.01 0.01 0.00 0.00 0.00 0.00 0.00 0.00 0.00 0.00 0.00 0.00 0.00 0.00 0.00 0.00 0.00 0.00 0.00 0.00 0.01 0.01 0.00 0.00 0.00 0.00 0.00 0.00 0.01 0.01
0.05 0.04 0.04 0.04 0.04 0.04 0.03 0.02 0.02 0.02 0.02 0.02 0.02 0.01 0.00 0.00 0.00 0.00 0.00 0.00 0.00 0.00 0.00 0.00 0.00 0.00 0.00 0.00 0.00 0.00 0.00 0.00 0.00 0.01 0.01 0.00 0.00 0.00 0.00 0.00 0.00 0.00 0.01
0.04 0.03 0.03 0.02 0.02 0.02 0.02 0.02 0.02 0.02 0.02 0.02 0.02 0.01 0.01 0.00 0.00 0.00 0.00 0.00 0.00 0.00 0.00 0.00 0.00 0.00 0.00 0.00 0.00 0.00 0.00 0.00 0.00 0.00 0.00 0.00 0.00 0.00 0.00 0.00 0.00 0.01 0.01
0.03 0.02 0.02 0.01 0.01 0.01 0.01 0.01 0.02 0.02 0.02 0.02 0.02 0.01 0.01 0.01 0.01 0.00 0.00 0.00 0.00 0.00 0.00 0.00 0.00 0.00 0.00 0.00 0.00 0.00 0.00 0.00 0.00 0.00 0.00 0.00 0.00 0.00 0.01 0.00 0.00 0.01 0.01
0.01 0.01 0.01 0.01 0.01 0.01 0.01 0.01 0.01 0.01 0.01 0.01 0.01 0.01 0.01 0.01 0.01 0.00 0.00 0.00 0.00 0.00 0.00 0.00 0.00 0.00 0.00 0.00 0.00 0.00 0.00 0.00 0.00 0.00 0.00 0.00 0.00 0.00 0.00 0.01 0.01 0.01 0.01
0.01 0.01 0.01 0.01 0.01 0.00 0.00 0.00 0.00 0.00 0.00 0.00 0.00 0.00 0.00 0.00 0.00 0.00 0.00 0.00 0.00 0.00 0.00 0.00 0.00 0.00 0.00 0.00 0.00 0.00 0.00 0.00 0.00 0.00 0.00 0.00 0.00 0.00 0.00 0.01 0.02 0.02 0.01
0.00 0.00 0.00 0.00 0.00 0.00 0.00 0.00 0.00 0.00 0.00 0.00 0.00 0.00 0.00 0.00 0.00 0.00 0.00 0.00 0.00 0.00 0.00 0.00 0.00 0.00 0.00 0.00 0.00 0.00 0.00 0.00 0.00 0.00 0.00 0.00 0.00 0.00 0.00 0.01 0.02 0.03 0.02
0.01 0.01 0.01 0.00 0.00 0.00 0.00 0.00 0.00 0.00 0.00 0.00 0.00 0.00 0.00 0.00 0.00 0.00 0.00 0.00 0.00 0.00 0.00 0.00 0.00 0.00 0.00 0.00 0.00 0.00 0.00 0.00 0.00 0.00 0.00 0.00 0.00 0.00 0.00 0.00 0.01 0.02 0.02
0.01 0.01 0.01 0.01 0.01 0.01 0.00 0.00 0.00 0.00 0.00 0.00 0.00 0.00 0.00 0.00 0.00 0.00 0.00 0.00 0.00 0.00 0.00 0.00 0.00 0.00 0.00 0.00 0.00 0.00 0.00 0.00 0.00 0.00 0.00 0.00 0.00 0.00 0.00 0.00 0.00 0.01 0.01
0.01 0.01 0.01 0.01 0.01 0.01 0.01 0.00 0.00 0.00 0.00 0.00 0.00 0.00 0.00 0.00 0.00 0.00 0.00 0.00 0.00 0.00 0.00 0.00 0.00 0.00 0.00 0.00 0.00 0.00 0.00 0.00 0.00 0.00 0.00 0.00 0.00 0.00 0.00 0.00 0.00 0.00 0.00
MSLP
1017.55 1017.82 1018.07 1018.32 1018.54 1018.73 1018.88 1018.97 1019.01 1019.00 1018.96 1018.89 1018.82 1018.75 1018.70 1018.67 1018.65 1018.63 1018.62 1018.60 1018.57 1018.54 1018.50 1018.47 1018.45 1018.44 1018.46 1018.50 1018.57 1018.65 1018.74 1018.84 1018.94 1019.03 1019.10 1019.16 1019.19 1019.21 1019.22 1019.20 1019.18 1019.15 1019.10
1017.27 1017.53 1017.81 1018.10 1018.37 1018.60 1018.77 1018.87 1018.91 1018.88 1018.82 1018.74 1018.65 1018.58 1018.52 1018.48 1018.45 1018.42 1018.38 1018.34 1018.28 1018.22 1018.17 1018.14 1018.13 1018.14 1018.19 1018.26 1018.36 1018.47 1018.58 1018.69 1018.79 1018.89 1018.96 1019.02 1019.07 1019.10 1019.11 1019.12 1019.11 1019.09 1019.08
1017.04 1017.30 1017.60 1017.92 1018.22 1018.49 1018.68 1018.80 1018.83 1018.80 1018.73 1018.63 1018.54 1018.47 1018.41 1018.36 1018.32 1018.28 1018.22 1018.15 1018.08 1018.01 1017.95 1017.92 1017.92 1017.96 1018.04 1018.14 1018.26 1018.38 1018.50 1018.60 1018.69 1018.76 1018.81 1018.85 1018.88 1018.89 1018.90 1018.91 1018.91 1018.91 1018.92
1016.88 1017.13 1017.45 1017.79 1018.12 1018.40 1018.62 1018.74 1018.77 1018.74 1018.66 1018.57 1018.48 1018.41 1018.36 1018.32 1018.28 1018.23 1018.17 1018.08 1018.00 1017.92 1017.86 1017.84 1017.87 1017.94 1018.04 1018.17 1018.30 1018.42 1018.52 1018.60 1018.65 1018.67 1018.68 1018.67 1018.66 1018.64 1018.63 1018.62 1018.63 1018.64 1018.68
1016.78 1017.04 1017.36 1017.71 1018.05 1018.35 1018.56 1018.68 1018.71 1018.68 1018.60 1018.52 1018.44 1018.39 1018.36 1018.34 1018.32 1018.28 1018.21 1018.13 1018.04 1017.96 1017.91 1017.91 1017.96 1018.05 1018.18 1018.33 1018.46 1018.58 1018.65 1018.69 1018.69 1018.65 1018.59 1018.53 1018.46 1018.40 1018.36 1018.33 1018.33 1018.35 1018.39
1016.73 1016.99 1017.32 1017.67 1018.01 1018.30 1018.50 1018.61 1018.64 1018.60 1018.54 1018.47 1018.43 1018.41 1018.41 1018.42 1018.41 1018.39 1018.33 1018.26 1018.18 1018.11 1018.08 1018.09 1018.17 1018.29 1018.44 1018.59 1018.73 1018.83 1018.87 1018.86 1018.80 1018.70 1018.58 1018.45 1018.33 1018.22 1018.14 1018.09 1018.08 1018.09 1018.15
1016.69 1016.96 1017.29 1017.65 1017.98 1018.25 1018.44 1018.54 1018.56 1018.52 1018.47 1018.43 1018.42 1018.43 1018.47 1018.51 1018.54 1018.53 1018.49 1018.43 1018.37 1018.32 1018.31 1018.35 1018.44 1018.59 1018.75 1018.92 1019.05 1019.13 1019.15 1019.09 1018.98 1018.82 1018.64 1018.46 1018.29 1018.14 1018.04 1017.97 1017.93 1017.94 1017.98
1016.63 1016.92 1017.27 1017.63 1017.95 1018.21 1018.38 1018.46 1018.48 1018.45 1018.41 1018.40 1018.42 1018.47 1018.54 1018.61 1018.66 1018.68 1018.66 1018.62 1018.57 1018.54 1018.55 1018.62 1018.74 1018.90 1019.08 1019.26 1019.39 1019.45 1019.44 1019.36 1019.20 1019.00 1018.78 1018.56 1018.35 1018.19 1018.06 1017.97 1017.93 1017.92 1017.95
1016.52 1016.86 1017.23 1017.60 1017.92 1018.17 1018.33 1018.41 1018.42 1018.40 1018.39 1018.39 1018.44 1018.52 1018.61 1018.71 1018.78 1018.81 1018.81 1018.78 1018.75 1018.74 1018.77 1018.86 1019.01 1019.19 1019.39 1019.57 1019.70 1019.76 1019.73 1019.62 1019.44 1019.22 1018.98 1018.74 1018.53 1018.35 1018.21 1018.12 1018.07 1018.05 1018.05
1016.38 1016.77 1017.18 1017.57 1017.90 1018.15 1018.30 1018.38 1018.40 1018.40 1018.40 1018.43 1018.50 1018.59 1018.71 1018.81 1018.89 1018.93 1018.93 1018.91 1018.90 1018.91 1018.96 1019.07 1019.24 1019.44 1019.65 1019.84 1019.97 1020.03 1020.00 1019.89 1019.71 1019.48 1019.24 1019.00 1018.79 1018.62 1018.49 1018.40 1018.33 1018.29 1018.27
1016.21 1016.65 1017.11 1017.52 1017.87 1018.13 1018.30 1018.39 1018.42 1018.44 1018.46 1018.51 1018.59 1018.70 1018.81 1018.92 1018.99 1019.03 1019.04 1019.03 1019.02 1019.05 1019.12 1019.25 1019.44 1019.66 1019.88 1020.08 1020.22 1020.28 1020.26 1020.15 1019.98 1019.77 1019.54 1019.33 1019.13 1018.98 1018.86 1018.77 1018.70 1018.63 1018.57
1016.03 1016.53 1017.03 1017.48 1017.85 1018.13 1018.31 1018.42 1018.47 1018.50 1018.54 1018.61 1018.70 1018.81 1018.93 1019.03 1019.10 1019.13 1019.14 1019.13 1019.14 1019.18 1019.28 1019.42 1019.63 1019.86 1020.09 1020.30 1020.45 1020.52 1020.52 1020.43 1020.28 1020.10 1019.90 1019.71 1019.54 1019.41 1019.30 1019.21 1019.12 1019.03 1018.91
1015.88 1016.42 1016.95 1017.43 1017.82 1018.12 1018.32 1018.44 1018.52 1018.57 1018.63 1018.71 1018.81 1018.92 1019.04 1019.14 1019.20 1019.24 1019.25 1019.25 1019.28 1019.33 1019.44 1019.61 1019.82 1020.06 1020.31 1020.52 1020.68 1020.77 1020.79 1020.73 1020.61 1020.46 1020.30 1020.14 1020.00 1019.88 1019.78 1019.68 1019.57 1019.44 1019.27
1015.77 1016.34 1016.89 1017.38 1017.78 1018.08 1018.29 1018.43 1018.52 1018.60 1018.67 1018.77 1018.88 1019.01 1019.13 1019.23 1019.30 1019.35 1019.37 1019.40 1019.44 1019.51 1019.64 1019.81 1020.04 1020.29 1020.53 1020.76 1020.93 1021.04 1021.08 1021.05 1020.98 1020.86 1020.74 1020.61 1020.49 1020.39 1020.28 1020.17 1020.03 1019.85 1019.62
1015.72 1016.30 1016.85 1017.33 1017.72 1018.02 1018.23 1018.38 1018.48 1018.57 1018.66 1018.78 1018.91 1019.05 1019.19 1019.30 1019.40 1019.46 1019.51 1019.56 1019.62 1019.72 1019.86 1020.04 1020.27 1020.52 1020.76 1020.99 1021.18 1021.30 1021.37 1021.38 1021.35 1021.27 1021.19 1021.09 1020.99 1020.89 1020.78 1020.65 1020.47 1020.25 1019.95
1015.74 1016.30 1016.83 1017.29 1017.66 1017.94 1018.13 1018.27 1018.38 1018.48 1018.60 1018.73 1018.89 1019.05 1019.21 1019.36 1019.48 1019.58 1019.66 1019.74 1019.82 1019.94 1020.08 1020.27 1020.49 1020.73 1020.98 1021.20 1021.40 1021.55 1021.64 1021.69 1021.69 1021.66 1021.61 1021.54 1021.46 1021.36 1021.24 1021.09 1020.88 1020.61 1020.26
1015.83 1016.37 1016.85 1017.27 1017.60 1017.85 1018.02 1018.15 1018.25 1018.36 1018.49 1018.65 1018.83 1019.03 1019.22 1019.41 1019.57 1019.70 1019.81 1019.92 1020.02 1020.15 1020.30 1020.48 1020.68 1020.91 1021.14 1021.36 1021.56 1021.72 1021.84 1021.93 1021.97 1021.97 1021.95 1021.91 1021.84 1021.75 1021.63 1021.45 1021.22 1020.92 1020.54
1015.99 1016.48 1016.92 1017.29 1017.57 1017.78 1017.92 1018.03 1018.13 1018.24 1018.39 1018.57 1018.78 1019.00 1019.23 1019.45 1019.65 1019.82 1019.96 1020.08 1020.20 1020.33 1020.47 1020.63 1020.81 1021.01 1021.22 1021.43 1021.63 1021.80 1021.95 1022.06 1022.13 1022.18 1022.19 1022.17 1022.12 1022.03 1021.91 1021.73 1021.50 1021.19 1020.79
1016.17 1016.62 1017.01 1017.33 1017.57 1017.73 1017.85 1017.94 1018.04 1018.16 1018.32 1018.52 1018.75 1019.00 1019.26 1019.51 1019.73 1019.92 1020.09 1020.22 1020.34 1020.46 1020.58 1020.71 1020.86 1021.03 1021.22 1021.40 1021.59 1021.77 1021.93 1022.07 1022.17 1022.24 1022.28 1022.29 1022.25 1022.18 1022.07 1021.91 1021.69 1021.40 1021.03
1016.35 1016.76 1017.11 1017.38 1017.58 1017.72 1017.81 1017.90 1017.99 1018.12 1018.29 1018.50 1018.75 1019.03 1019.30 1019.57 1019.81 1020.02 1020.18 1020.32 1020.43 1020.53 1020.63 1020.72 1020.84 1020.97 1021.12 1021.29 1021.46 1021.64 1021.81 1021.96 1022.09 1022.19 1022.25 1022.27 1022.26 1022.21 1022.12 1021.99 1021.80 1021.56 1021.25
1016.49 1016.86 1017.17 1017.40 1017.57 1017.69 1017.78 1017.86 1017.97 1018.10 1018.29 1018.51 1018.77 1019.06 1019.34 1019.62 1019.86 1020.07 1020.24 1020.37 1020.47 1020.54 1020.61 1020.68 1020.76 1020.86 1020.98 1021.12 1021.28 1021.45 1021.62 1021.79 1021.93 1022.04 1022.12 1022.17 1022.17 1022.14 1022.08 1021.99 1021.86 1021.69 1021.46
1016.52 1016.86 1017.13 1017.35 1017.50 1017.62 1017.71 1017.80 1017.92 1018.07 1018.26 1018.50 1018.77 1019.06 1019.35 1019.62 1019.86 1020.07 1020.23 1020.35 1020.44 1020.50 1020.54 1020.59 1020.64 1020.72 1020.82 1020.94 1021.09 1021.26 1021.44 1021.60 1021.76 1021.88 1021.97 1022.03 1022.05 1022.05 1022.02 1021.97 1021.90 1021.80 1021.67
1016.41 1016.72 1016.97 1017.17 1017.32 1017.44 1017.54 1017.66 1017.79 1017.96 1018.17 1018.42 1018.69 1018.98 1019.27 1019.54 1019.78 1019.99 1020.15 1020.27 1020.35 1020.41 1020.45 1020.49 1020.53 1020.60 1020.69 1020.81 1020.96 1021.12 1021.30 1021.48 1021.63 1021.77 1021.87 1021.94 1021.97 1021.98 1021.98 1021.97 1021.95 1021.92 1021.88
1016.14 1016.40 1016.63 1016.82 1016.98 1017.11 1017.24 1017.38 1017.54 1017.73 1017.96 1018.22 1018.50 1018.79 1019.07 1019.35 1019.59 1019.80 1019.98 1020.11 1020.21 1020.29 1020.34 1020.39 1020.45 1020.53 1020.63 1020.76 1020.91 1021.09 1021.27 1021.45 1021.62 1021.76 1021.87 1021.94 1021.99 1022.01 1022.02 1022.04 1022.05 1022.08 1022.10
1015.70 1015.93 1016.13 1016.31 1016.47 1016.62 1016.78 1016.95 1017.14 1017.36 1017.61 1017.88 1018.17 1018.46 1018.76 1019.04 1019.29 1019.53 1019.72 1019.89 1020.03 1020.14 1020.23 1020.32 1020.41 1020.51 1020.64 1020.79 1020.96 1021.15 1021.36 1021.55 1021.73 1021.88 1021.99 1022.07 1022.12 1022.14 1022.16 1022.18 1022.21 1022.26 1022.32
1015.13 1015.32 1015.49 1015.66 1015.83 1016.00 1016.18 1016.39 1016.61 1016.86 1017.13 1017.42 1017.72 1018.03 1018.33 1018.63 1018.91 1019.17 1019.41 1019.62 1019.80 1019.97 1020.11 1020.25 1020.38 1020.53 1020.69 1020.88 1021.08 1021.30 1021.52 1021.74 1021.93 1022.09 1022.22 1022.30 1022.35 1022.37 1022.38 1022.39 1022.42 1022.46 1022.52
Thickness
5687 5686 5686 5685 5685 5685 5685 5684 5685 5686 5686 5686 5686 5686 5687 5687 5686 5686 5685 5683 5681 5680 5679 5678 5677 5675 5674 5671 5669 5666 5663 5660 5657 5653 5649 5645 5642 5639 5635 5632 5629 5627 5624
5682 5682 5682 5681 5682 5681 5681 5681 5682 5681 5682 5682 5682 5682 5683 5683 5682 5682 5681 5680 5678 5676 5675 5674 5673 5671 5669 5667 5664 5661 5658 5655 5652 5649 5645 5641 5637 5634 5630 5627 5624 5622 5619
5677 5677 5678 5678 5678 5677 5677 5677 5677 5677 5677 5677 5677 5678 5678 5678 5677 5677 5677 5675 5674 5672 5670 5669 5667 5666 5663 5661 5658 5655 5652 5649 5646 5643 5640 5636 5632 5629 5626 5623 5620 5617 5614
5672 5672 5674 5674 5673 5672 5672 5672 5672 5672 5672 5673 5673 5673 5673 5672 5672 5672 5671 5670 5668 5667 5666 5663 5661 5659 5657 5654 5651 5648 5645 5642 5639 5636 5633 5630 5627 5624 5621 5618 5615 5612 5610
5668 5668 5669 5669 5668 5668 5668 5667 5667 5667 5667 5667 5667 5667 5668 5667 5666 5665 5665 5663 5661 5659 5658 5656 5653 5651 5649 5646 5644 5640 5637 5634 5631 5628 5626 5623 5621 5618 5615 5613 5610 5608 5605
5663 5663 5663 5664 5663 5663 5662 5662 5661 5660 5661 5661 5660 5660 5661 5661 5660 5658 5657 5655 5652 5651 5649 5648 5646 5643 5640 5637 5635 5632 5628 5626 5623 5620 5618 5616 5614 5612 5609 5607 5605 5602 5600
5658 5657 5657 5657 5657 5657 5657 5656 5655 5654 5653 5654 5653 5654 5655 5654 5652 5650 5648 5646 5644 5641 5640 5638 5636 5633 5630 5627 5624 5622 5619 5616 5614 5612 5610 5608 5606 5605 5603 5601 5599 5597 5595
5652 5652 5652 5651 5650 5649 5649 5649 5648 5647 5647 5646 5646 5646 5646 5647 5644 5641 5639 5636 5634 5632 5629 5627 5625 5622 5619 5617 5613 5611 5609 5607 5604 5602 5601 5599 5598 5597 5595 5594 5592 5590 5588
5646 5646 5646 5645 5643 5643 5643 5642 5641 5641 5640 5639 5639 5639 5638 5639 5639 5635 5630 5627 5625 5622 5619 5616 5613 5610 5607 5605 5603 5600 5598 5597 5595 5593 5592 5591 5589 5588 5587 5586 5585 5582 5580
5640 5640 5639 5639 5637 5636 5635 5635 5634 5634 5633 5632 5631 5630 5631 5631 5627 5628 5624 5620 5616 5613 5610 5606 5603 5599 5596 5594 5591 5589 5587 5586 5584 5583 5581 5580 5579 5578 5577 5576 5575 5574 5572
5633 5633 5633 5632 5631 5629 5628 5628 5627 5626 5626 5626 5625 5623 5621 5619 5619 5617 5618 5614 5609 5604 5600 5596 5593 5589 5585 5582 5580 5578 5575 5574 5573 5572 5571 5569 5568 5566 5565 5565 5564 5564 5563
5625 5626 5626 5626 5624 5622 5621 5620 5619 5618 5617 5617 5616 5615 5614 5612 5611 5609 5607 5606 5602 5597 5590 5585 5582 5578 5574 5571 5568 5565 5564 5562 5561 5560 5559 5557 5555 5554 5553 5553 5553 5553 5552
5619 5619 5619 5618 5616 5614 5613 5612 5610 5609 5608 5607 5606 5605 5604 5602 5600 5598 5595 5595 5592 5588 5581 5575 5571 5567 5563 5560 5556 5553 5552 5550 5548 5547 5546 5544 5541 5540 5540 5540 5540 5541 5542
5615 5613 5611 5609 5607 5606 5604 5603 5602 5600 5599 5597 5595 5594 5592 5590 5587 5585 5583 5582 5581 5580 5575 5569 5560 5556 5553 5549 5545 5542 5540 5538 5535 5534 5532 5530 5528 5528 5528 5528 5528 5529 5531
5606 5605 5602 5600 5599 5597 5596 5594 5592 5591 5590 5588 5585 5583 5581 5578 5575 5572 5571 5569 5569 5571 5570 5562 5552 5545 5541 5537 5533 5530 5528 5525 5523 5521 5519 5518 5516 5516 5515 5516 5517 5518 5520
5597 5595 5593 5592 5589 5588 5586 5584 5582 5581 5579 5577 5574 5573 5570 5567 5564 5561 5558 5557 5555 5555 5557 5550 5542 5534 5529 5526 5522 5518 5515 5513 5511 5509 5507 5506 5504 5504 5504 5505 5506 5507 5509
5588 5586 5584 5582 5580 5578 5576 5574 5572 5570 5569 5567 5564 5562 5559 5555 5554 5550 5547 5545 5543 5541 5541 5537 5529 5523 5518 5515 5510 5507 5504 5502 5500 5497 5496 5495 5494 5494 5494 5494 5495 5496 5498
5578 5576 5574 5572 5570 5568 5566 5564 5562 5559 5558 5556 5553 5551 5548 5544 5542 5539 5537 5534 5532 5529 5527 5526 5518 5512 5507 5504 5500 5496 5493 5491 5489 5486 5485 5484 5483 5483 5483 5484 5484 5486 5488
5566 5564 5563 5561 5560 5557 5555 5554 5551 5549 5547 5545 5542 5540 5537 5534 5531 5528 5525 5523 5520 5517 5514 5513 5509 5502 5496 5492 5488 5485 5483 5480 5478 5475 5474 5473 5473 5473 5473 5473 5474 5476 5478
5555 5553 5551 5549 5547 5545 5544 5541 5539 5537 5535 5532 5530 5528 5525 5523 5520 5516 5514 5512 5509 5507 5504 5502 5498 5492 5487 5483 5480 5478 5475 5471 5468 5466 5465 5463 5462 5462 5462 5463 5465 5466 5468
5542 5541 5539 5537 5535 5534 5532 5529 5527 5525 5523 5520 5517 5515 5513 5510 5507 5505 5503 5501 5498 5497 5495 5493 5488 5483 5479 5475 5473 5470 5467 5463 5460 5457 5457 5455 5454 5454 5454 5454 5456 5457 5459
5529 5528 5527 5525 5523 5522 5520 5517 5516 5514 5511 5509 5506 5503 5501 5498 5495 5492 5490 5488 5486 5486 5485 5482 5480 5477 5474 5470 5466 5462 5459 5456 5455 5449 5449 5448 5446 5446 5445 5446 5446 5448 5450
5516 5516 5515 5514 5512 5511 5508 5505 5503 5502 5500 5498 5495 5493 5491 5488 5484 5482 5479 5476 5475 5472 5471 5471 5471 5470 5466 5462 5457 5454 5451 5449 5448 5443 5441 5442 5439 5439 5437 5437 5438 5439 5441
5504 5504 5503 5502 5501 5499 5497 5494 5492 5489 5488 5487 5485 5483 5481 5478 5475 5472 5470 5467 5465 5463 5460 5458 5458 5457 5455 5451 5448 5445 5442 5439 5436 5433 5431 5435 5434 5432 5430 5430 5430 5431 5432
5492 5491 5491 5490 5489 5488 5486 5484 5481 5479 5478 5476 5474 5472 5470 5468 5465 5462 5459 5457 5455 5452 5449 5447 5445 5444 5442 5440 5438 5436 5433 5432 5432 5429 5424 5426 5426 5424 5424 5424 5422 5422 5423
5479 5479 5478 5478 5478 5478 5476 5474 5471 5470 5469 5467 5464 5461 5459 5458 5456 5453 5450 5448 5446 5444 5440 5437 5435 5434 5432 5430 5428 5427 5425 5423 5424 5422 5418 5417 5417 5416 5417 5416 5415 5415 5416